Location: Glencliff
(36.1226°N, 86.7183°W)
Time: 19:35:33
(UTC+00:00)

ERS-1 Rocket - Pass Details

Date: 25 August 2019
Orbit: 754 x 757 km, 98.5° (Epoch: 18 October)

Event Time Altitude Azimuth Distance (km) Brightness Sun altitude
Exits shadow 02:58:45 37° 29° (NNE) 1,156 3.9 -28.2°
Drops below altitude 10° 03:02:10 10° 360° (N) 2,285 5.9 -28.7°
Sets 03:04:32 0° 354° (N) 3,213 6.9 -29.1°
